{"data":{"norad_id":68449,"epoch":"2026-09-20T02:49:48.637920Z","epoch_age_seconds":102102,"freshness":"FRESH","line1":"1 68449U 26067AK  26263.11792405  .00004800  00000+0  23195-3 0  9994","line2":"2 68449  97.4610 220.1763 0006087  93.9454 266.2476 15.19088590 26340","mean_motion":15.1908859,"eccentricity":0.0006087,"inclination_deg":97.461,"raan_deg":220.1763,"arg_perigee_deg":93.9454,"mean_anomaly_deg":266.2476,"bstar":0.00023195,"rev_number":2634,"period_min":94.793681519259,"perigee_km":504.40184611787,"apogee_km":512.78575219277,"semimajor_km":6886.7307991553,"source":"CELESTRAK","updated_at":"2026-09-20T09:00:24.208270Z"}}